GLO1752 SBBR-SBTE

Flight info

Callsign GLO1752
Flight time 1h 45m
Altitude 33000
Route PULUV UZ5 TNA
Aircraft B738/M-SDE2E3FGHIRWXY/LB1

Departure

Time 2026-05-05 19:06
Airport Presidente Juscelino Kubitschek International Airport (SBBR)

Arrival

Time 2026-05-05 20:51
Airport Senador Petrônio Portela Airport (SBTE)
Time Latitude Longitude Altitude Speed Heading
2026-05-05 18:28 -15.87128 -47.91906 3464 ft 0 kts 176°
2026-05-05 18:54 -15.87107 -47.91907 3464 ft 3 kts 176°
2026-05-05 18:54 -15.87085 -47.91911 3462 ft 4 kts 138°
2026-05-05 18:54 -15.87073 -47.91933 3464 ft 4 kts 95°
2026-05-05 18:54 -15.87072 -47.91946 3464 ft 1 kts 88°
2026-05-05 18:55 -15.87072 -47.91947 3464 ft 0 kts 88°
2026-05-05 18:58 -15.87072 -47.91946 3464 ft 1 kts 88°
2026-05-05 18:58 -15.87071 -47.91902 3464 ft 11 kts 88°
2026-05-05 18:58 -15.87064 -47.91793 3464 ft 17 kts 86°
2026-05-05 18:59 -15.87090 -47.91688 3464 ft 16 kts 160°
2026-05-05 18:59 -15.87203 -47.91676 3464 ft 17 kts 175°
2026-05-05 18:59 -15.87331 -47.91667 3461 ft 19 kts 176°
2026-05-05 18:59 -15.87471 -47.91658 3463 ft 22 kts 176°
2026-05-05 19:00 -15.87623 -47.91663 3460 ft 22 kts 214°
2026-05-05 19:00 -15.87653 -47.91811 3462 ft 21 kts 266°
2026-05-05 19:00 -15.87672 -47.91960 3467 ft 21 kts 238°
2026-05-05 19:00 -15.87761 -47.92056 3469 ft 20 kts 266°
2026-05-05 19:01 -15.87770 -47.92197 3472 ft 19 kts 266°
2026-05-05 19:01 -15.87779 -47.92340 3471 ft 21 kts 266°
2026-05-05 19:01 -15.87789 -47.92503 3475 ft 24 kts 266°
2026-05-05 19:01 -15.87800 -47.92681 3475 ft 25 kts 266°
2026-05-05 19:02 -15.87811 -47.92853 3478 ft 23 kts 265°
2026-05-05 19:02 -15.87822 -47.93017 3480 ft 22 kts 266°
2026-05-05 19:02 -15.87832 -47.93176 3486 ft 22 kts 266°
2026-05-05 19:02 -15.87842 -47.93331 3495 ft 21 kts 266°
2026-05-05 19:03 -15.87852 -47.93481 3498 ft 21 kts 266°
2026-05-05 19:03 -15.87861 -47.93627 3501 ft 20 kts 266°
2026-05-05 19:03 -15.87870 -47.93768 3507 ft 19 kts 266°
2026-05-05 19:03 -15.87879 -47.93905 3508 ft 19 kts 265°
2026-05-05 19:04 -15.87950 -47.93994 3509 ft 17 kts 184°
2026-05-05 19:04 -15.87957 -47.93994 3509 ft 0 kts 181°
2026-05-05 19:04 -15.87978 -47.93994 3509 ft 9 kts 179°
2026-05-05 19:04 -15.88058 -47.93977 3510 ft 12 kts 138°
2026-05-05 19:05 -15.88063 -47.93943 3509 ft 0 kts 87°
2026-05-05 19:05 -15.88055 -47.93817 3506 ft 50 kts 86°
2026-05-05 19:05 -15.88017 -47.93218 3488 ft 117 kts 86°
2026-05-05 19:05 -15.87955 -47.92172 3500 ft 169 kts 88°
2026-05-05 19:06 -15.87867 -47.90911 4070 ft 175 kts 86°
2026-05-05 19:06 -15.87748 -47.89653 4848 ft 180 kts 89°
2026-05-05 19:06 -15.87673 -47.88244 5142 ft 209 kts 89°
2026-05-05 19:06 -15.87587 -47.86649 5354 ft 233 kts 88°
2026-05-05 19:07 -15.87480 -47.84876 5560 ft 260 kts 88°
2026-05-05 19:07 -15.87358 -47.82960 6257 ft 267 kts 87°
2026-05-05 19:07 -15.87233 -47.81024 7125 ft 270 kts 87°
2026-05-05 19:07 -15.87102 -47.79063 7968 ft 274 kts 86°
2026-05-05 19:08 -15.86620 -47.77134 8662 ft 282 kts 62°
2026-05-05 19:08 -15.85302 -47.75620 9452 ft 287 kts 36°
2026-05-05 19:08 -15.83445 -47.74824 9980 ft 294 kts 11°
2026-05-05 19:08 -15.81392 -47.74863 10265 ft 301 kts 351°
2026-05-05 19:09 -15.79410 -47.75607 10285 ft 303 kts 337°
2026-05-05 19:09 -15.77499 -47.76530 10270 ft 303 kts 337°
2026-05-05 19:09 -15.75591 -47.77413 10268 ft 302 kts 338°
2026-05-05 19:09 -15.73668 -47.78281 10263 ft 302 kts 338°
2026-05-05 19:10 -15.71745 -47.79145 10261 ft 301 kts 338°
2026-05-05 19:10 -15.69829 -47.80006 10271 ft 300 kts 338°
2026-05-05 19:10 -15.67892 -47.80787 10254 ft 299 kts 348°
2026-05-05 19:10 -15.65837 -47.80812 10410 ft 299 kts 11°
2026-05-05 19:11 -15.63709 -47.80423 10573 ft 322 kts 11°
2026-05-05 19:11 -15.61426 -47.80044 10863 ft 340 kts 10°
2026-05-05 19:11 -15.59057 -47.79681 11432 ft 347 kts
2026-05-05 19:11 -15.56661 -47.79323 12141 ft 349 kts
2026-05-05 19:12 -15.54255 -47.78972 12852 ft 351 kts
2026-05-05 19:12 -15.51819 -47.78612 13473 ft 356 kts
2026-05-05 19:12 -15.49351 -47.78244 14075 ft 360 kts
2026-05-05 19:12 -15.46852 -47.77872 14683 ft 364 kts
2026-05-05 19:13 -15.44334 -47.77496 15273 ft 369 kts
2026-05-05 19:13 -15.41772 -47.77115 15861 ft 373 kts
2026-05-05 19:13 -15.39197 -47.76730 16422 ft 377 kts
2026-05-05 19:13 -15.36584 -47.76341 16952 ft 381 kts
2026-05-05 19:14 -15.33944 -47.75948 17518 ft 385 kts
2026-05-05 19:14 -15.31288 -47.75553 18049 ft 388 kts
2026-05-05 19:14 -15.28598 -47.75153 18535 ft 393 kts
2026-05-05 19:14 -15.25885 -47.74749 19022 ft 397 kts
2026-05-05 19:15 -15.23176 -47.74345 19528 ft 400 kts
2026-05-05 19:15 -15.20412 -47.73933 20033 ft 403 kts
2026-05-05 19:15 -15.17623 -47.73517 20501 ft 406 kts
2026-05-05 19:15 -15.14810 -47.73099 20953 ft 410 kts
2026-05-05 19:16 -15.11972 -47.72676 21394 ft 413 kts
2026-05-05 19:16 -15.09121 -47.72251 21814 ft 417 kts
2026-05-05 19:16 -15.06237 -47.71822 22210 ft 420 kts
2026-05-05 19:16 -15.03332 -47.71390 22626 ft 423 kts
2026-05-05 19:17 -15.00407 -47.70956 23034 ft 426 kts
2026-05-05 19:17 -14.97463 -47.70519 23431 ft 428 kts
2026-05-05 19:17 -14.94504 -47.70079 23822 ft 431 kts
2026-05-05 19:17 -14.91531 -47.69638 24172 ft 434 kts
2026-05-05 19:18 -14.88529 -47.69191 24508 ft 437 kts
2026-05-05 19:18 -14.85505 -47.68742 24834 ft 440 kts
2026-05-05 19:18 -14.82460 -47.68290 25159 ft 443 kts
2026-05-05 19:18 -14.79393 -47.67835 25463 ft 447 kts
2026-05-05 19:19 -14.76304 -47.67377 25777 ft 450 kts
2026-05-05 19:19 -14.73204 -47.66917 26098 ft 452 kts
2026-05-05 19:19 -14.70078 -47.66454 26409 ft 455 kts
2026-05-05 19:19 -14.66941 -47.65989 26692 ft 458 kts
2026-05-05 19:20 -14.63819 -47.65272 26902 ft 463 kts 20°
2026-05-05 19:20 -14.60925 -47.63866 27194 ft 465 kts 27°
2026-05-05 19:20 -14.58067 -47.62289 27482 ft 468 kts 28°
2026-05-05 19:20 -14.55194 -47.60688 27742 ft 471 kts 28°
2026-05-05 19:21 -14.52300 -47.59098 27965 ft 474 kts 27°
2026-05-05 19:21 -14.49368 -47.57515 28210 ft 477 kts 27°
2026-05-05 19:21 -14.46406 -47.55941 28452 ft 479 kts 27°
2026-05-05 19:21 -14.43425 -47.54373 28712 ft 482 kts 26°
2026-05-05 19:22 -14.40425 -47.52802 28942 ft 484 kts 26°
2026-05-05 19:22 -14.37406 -47.51225 29163 ft 486 kts 26°
2026-05-05 19:22 -14.34377 -47.49643 29357 ft 490 kts 26°
2026-05-05 19:22 -14.31330 -47.48050 29570 ft 492 kts 26°
2026-05-05 19:23 -14.28269 -47.46449 29793 ft 494 kts 26°
2026-05-05 19:23 -14.25196 -47.44842 29998 ft 496 kts 26°
2026-05-05 19:23 -14.22140 -47.43244 30189 ft 499 kts 26°
2026-05-05 19:23 -14.19039 -47.41622 30400 ft 501 kts 26°
2026-05-05 19:24 -14.15927 -47.39995 30631 ft 502 kts 26°
2026-05-05 19:24 -14.12814 -47.38367 30908 ft 502 kts 26°
2026-05-05 19:24 -14.09695 -47.36738 31177 ft 502 kts 26°
2026-05-05 19:24 -14.06576 -47.35109 31437 ft 503 kts 26°
2026-05-05 19:25 -14.03453 -47.33478 31688 ft 503 kts 26°
2026-05-05 19:25 -14.00329 -47.31848 31963 ft 503 kts 26°
2026-05-05 19:25 -13.97204 -47.30218 32234 ft 503 kts 26°
2026-05-05 19:25 -13.94084 -47.28591 32535 ft 502 kts 26°
2026-05-05 19:26 -13.90974 -47.26968 32808 ft 502 kts 26°
2026-05-05 19:26 -13.87852 -47.25340 33049 ft 503 kts 26°
2026-05-05 19:26 -13.84721 -47.23707 33203 ft 505 kts 26°
2026-05-05 19:26 -13.81584 -47.22072 33182 ft 507 kts 26°
2026-05-05 19:27 -13.75316 -47.18807 33191 ft 503 kts 26°
2026-05-05 19:27 -13.69123 -47.15576 33184 ft 501 kts 26°
2026-05-05 19:28 -13.62910 -47.12334 33179 ft 499 kts 26°
2026-05-05 19:28 -13.56717 -47.09104 33175 ft 499 kts 26°
2026-05-05 19:29 -13.50525 -47.05878 33182 ft 498 kts 26°
2026-05-05 19:29 -13.44337 -47.02655 33174 ft 499 kts 26°
2026-05-05 19:30 -13.38135 -46.99426 33177 ft 500 kts 26°
2026-05-05 19:30 -13.31916 -46.96190 33171 ft 501 kts 26°
2026-05-05 19:31 -13.25684 -46.92960 33157 ft 502 kts 26°
2026-05-05 19:31 -13.19456 -46.89734 33157 ft 502 kts 26°
2026-05-05 19:32 -13.13245 -46.86520 33148 ft 503 kts 26°
2026-05-05 19:32 -13.06998 -46.83287 33145 ft 503 kts 26°
2026-05-05 19:33 -13.00740 -46.80050 33151 ft 503 kts 26°
2026-05-05 19:33 -12.94498 -46.76822 33141 ft 503 kts 26°
2026-05-05 19:34 -12.88237 -46.73587 33136 ft 503 kts 26°
2026-05-05 19:35 -12.78924 -46.68777 33127 ft 502 kts 26°
2026-05-05 19:35 -12.72695 -46.65562 33130 ft 501 kts 26°
2026-05-05 19:36 -12.66472 -46.62352 33126 ft 500 kts 26°
2026-05-05 19:36 -12.60260 -46.59151 33119 ft 499 kts 26°
2026-05-05 19:37 -12.55108 -46.56497 33119 ft 498 kts 26°
2026-05-05 19:37 -12.48921 -46.53310 33121 ft 497 kts 26°
2026-05-05 19:38 -12.41732 -46.49608 33102 ft 497 kts 26°
2026-05-05 19:38 -12.36629 -46.46801 33101 ft 497 kts 29°
2026-05-05 19:39 -12.30625 -46.43300 33104 ft 497 kts 29°
2026-05-05 19:39 -12.24621 -46.39813 33095 ft 497 kts 29°
2026-05-05 19:40 -12.18581 -46.36350 33090 ft 497 kts 28°
2026-05-05 19:40 -12.12536 -46.32905 33079 ft 498 kts 28°
2026-05-05 19:41 -12.06529 -46.29484 33083 ft 497 kts 28°
2026-05-05 19:41 -12.00483 -46.26039 33070 ft 497 kts 28°
2026-05-05 19:42 -11.94437 -46.22596 33075 ft 497 kts 28°
2026-05-05 19:42 -11.88388 -46.19152 33076 ft 497 kts 28°
2026-05-05 19:43 -11.82345 -46.15715 33072 ft 497 kts 28°
2026-05-05 19:43 -11.76296 -46.12273 33073 ft 497 kts 28°
2026-05-05 19:44 -11.70253 -46.08838 33067 ft 498 kts 29°
2026-05-05 19:44 -11.64203 -46.05400 33064 ft 497 kts 28°
2026-05-05 19:45 -11.58157 -46.01970 33066 ft 497 kts 28°
2026-05-05 19:45 -11.52034 -45.98802 33065 ft 496 kts 25°
2026-05-05 19:46 -11.45799 -45.95766 33065 ft 496 kts 25°
2026-05-05 19:46 -11.39583 -45.92711 33064 ft 496 kts 25°
2026-05-05 19:47 -11.33375 -45.89615 33065 ft 496 kts 26°
2026-05-05 19:47 -11.27173 -45.86507 33059 ft 497 kts 26°
2026-05-05 19:48 -11.20968 -45.83397 33068 ft 497 kts 26°
2026-05-05 19:48 -11.14757 -45.80288 33056 ft 497 kts 26°
2026-05-05 19:49 -11.08547 -45.77183 33053 ft 497 kts 26°
2026-05-05 19:49 -11.02339 -45.74079 33062 ft 497 kts 26°
2026-05-05 19:50 -10.96131 -45.70978 33052 ft 496 kts 26°
2026-05-05 19:50 -10.89937 -45.67885 33057 ft 496 kts 26°
2026-05-05 19:51 -10.83778 -45.64811 33051 ft 496 kts 26°
2026-05-05 19:51 -10.77591 -45.61725 33057 ft 495 kts 26°
2026-05-05 19:52 -10.71405 -45.58640 33054 ft 494 kts 26°
2026-05-05 19:52 -10.65232 -45.55563 33052 ft 494 kts 26°
2026-05-05 19:53 -10.59063 -45.52489 33055 ft 493 kts 26°
2026-05-05 19:53 -10.52901 -45.49421 33054 ft 493 kts 26°
2026-05-05 19:54 -10.46731 -45.46351 33057 ft 494 kts 26°
2026-05-05 19:54 -10.40560 -45.43281 33053 ft 494 kts 26°
2026-05-05 19:55 -10.34395 -45.40214 33056 ft 493 kts 26°
2026-05-05 19:55 -10.28227 -45.37148 33052 ft 493 kts 26°
2026-05-05 19:56 -10.22101 -45.34104 33036 ft 494 kts 26°
2026-05-05 19:56 -10.15921 -45.31036 33020 ft 494 kts 26°
2026-05-05 19:57 -10.09749 -45.27972 33008 ft 494 kts 26°
2026-05-05 19:57 -10.03562 -45.24901 33009 ft 494 kts 26°
2026-05-05 19:58 -9.97384 -45.21836 33011 ft 494 kts 26°
2026-05-05 19:58 -9.91248 -45.18794 33010 ft 494 kts 26°
2026-05-05 19:59 -9.85076 -45.15734 33008 ft 493 kts 26°
2026-05-05 19:59 -9.78917 -45.12684 33008 ft 493 kts 26°
2026-05-05 20:00 -9.72752 -45.09630 33009 ft 493 kts 26°
2026-05-05 20:00 -9.66588 -45.06578 33008 ft 492 kts 26°
2026-05-05 20:01 -9.60443 -45.03537 33011 ft 491 kts 26°
2026-05-05 20:01 -9.54302 -45.00499 33011 ft 491 kts 26°
2026-05-05 20:02 -9.48185 -44.97478 33010 ft 491 kts 26°
2026-05-05 20:02 -9.42032 -44.94441 33003 ft 492 kts 26°
2026-05-05 20:03 -9.35878 -44.91404 33005 ft 492 kts 26°
2026-05-05 20:03 -9.29725 -44.88368 32985 ft 492 kts 26°
2026-05-05 20:04 -9.23565 -44.85329 32971 ft 492 kts 26°
2026-05-05 20:04 -9.17410 -44.82294 32965 ft 492 kts 26°
2026-05-05 20:05 -9.11251 -44.79259 32956 ft 492 kts 26°
2026-05-05 20:05 -9.05089 -44.76223 32956 ft 492 kts 26°
2026-05-05 20:06 -8.98936 -44.73192 32950 ft 492 kts 26°
2026-05-05 20:06 -8.92787 -44.70165 32953 ft 491 kts 26°
2026-05-05 20:07 -8.86636 -44.67139 32953 ft 491 kts 26°
2026-05-05 20:07 -8.80532 -44.64137 32954 ft 491 kts 26°
2026-05-05 20:08 -8.74387 -44.61114 32951 ft 491 kts 26°
2026-05-05 20:08 -8.68246 -44.58094 32953 ft 491 kts 26°
2026-05-05 20:09 -8.62105 -44.55076 32955 ft 490 kts 26°
2026-05-05 20:09 -8.55973 -44.52065 32954 ft 490 kts 26°
2026-05-05 20:10 -8.49831 -44.49049 32955 ft 491 kts 26°
2026-05-05 20:10 -8.43696 -44.46036 32951 ft 491 kts 26°
2026-05-05 20:11 -8.37550 -44.43021 32957 ft 490 kts 26°
2026-05-05 20:11 -8.31447 -44.40027 32952 ft 491 kts 26°
2026-05-05 20:12 -8.25305 -44.37015 32954 ft 490 kts 26°
2026-05-05 20:12 -8.19168 -44.34006 32958 ft 491 kts 26°
2026-05-05 20:13 -8.13027 -44.30998 32953 ft 491 kts 26°
2026-05-05 20:13 -8.06880 -44.27986 32954 ft 491 kts 26°
2026-05-05 20:14 -8.00741 -44.24980 32956 ft 491 kts 26°
2026-05-05 20:14 -7.94597 -44.21971 32944 ft 491 kts 26°
2026-05-05 20:15 -7.88445 -44.18960 32943 ft 491 kts 26°
2026-05-05 20:15 -7.82300 -44.15950 32944 ft 491 kts 26°
2026-05-05 20:16 -7.76162 -44.12936 32943 ft 491 kts 26°
2026-05-05 20:16 -7.70017 -44.09920 32947 ft 491 kts 26°
2026-05-05 20:17 -7.63873 -44.06906 32947 ft 491 kts 26°
2026-05-05 20:17 -7.57732 -44.03894 32946 ft 490 kts 26°
2026-05-05 20:18 -7.51626 -44.00904 32943 ft 490 kts 26°
2026-05-05 20:18 -7.45490 -43.97896 32944 ft 490 kts 26°
2026-05-05 20:19 -7.39363 -43.94891 32942 ft 490 kts 26°
2026-05-05 20:19 -7.33227 -43.91886 32948 ft 489 kts 26°
2026-05-05 20:20 -7.27115 -43.88897 32942 ft 488 kts 26°
2026-05-05 20:20 -7.20998 -43.85918 32943 ft 488 kts 26°
2026-05-05 20:21 -7.14896 -43.82947 32935 ft 487 kts 26°
2026-05-05 20:21 -7.08797 -43.79976 32936 ft 486 kts 26°
2026-05-05 20:22 -7.02717 -43.77015 32933 ft 485 kts 26°
2026-05-05 20:22 -6.96681 -43.74075 32935 ft 485 kts 26°
2026-05-05 20:23 -6.90608 -43.71119 32936 ft 484 kts 26°
2026-05-05 20:23 -6.84551 -43.68171 32939 ft 483 kts 26°
2026-05-05 20:24 -6.78496 -43.65225 32932 ft 483 kts 26°
2026-05-05 20:24 -6.72454 -43.62287 32933 ft 482 kts 26°
2026-05-05 20:25 -6.66415 -43.59351 32941 ft 482 kts 26°
2026-05-05 20:25 -6.64410 -43.58376 32713 ft 484 kts 26°
2026-05-05 20:25 -6.60401 -43.56427 32146 ft 478 kts 26°
2026-05-05 20:25 -6.57422 -43.54980 31683 ft 474 kts 26°
2026-05-05 20:26 -6.55420 -43.54008 31366 ft 471 kts 26°
2026-05-05 20:26 -6.51534 -43.52119 30757 ft 466 kts 26°
2026-05-05 20:26 -6.49606 -43.51182 30447 ft 463 kts 26°
2026-05-05 20:26 -6.46712 -43.49776 29984 ft 460 kts 26°
2026-05-05 20:27 -6.43839 -43.48380 29517 ft 457 kts 26°
2026-05-05 20:27 -6.40988 -43.46995 29042 ft 453 kts 26°
2026-05-05 20:27 -6.38159 -43.45621 28566 ft 450 kts 26°
2026-05-05 20:27 -6.35352 -43.44258 28092 ft 446 kts 26°
2026-05-05 20:28 -6.32567 -43.42906 27616 ft 442 kts 26°
2026-05-05 20:28 -6.29806 -43.41566 27142 ft 439 kts 26°
2026-05-05 20:28 -6.27075 -43.40239 26663 ft 435 kts 26°
2026-05-05 20:28 -6.24359 -43.38922 26203 ft 431 kts 26°
2026-05-05 20:29 -6.21671 -43.37611 25738 ft 427 kts 26°
2026-05-05 20:29 -6.19014 -43.36303 25281 ft 423 kts 26°
2026-05-05 20:29 -6.16385 -43.35005 24820 ft 419 kts 27°
2026-05-05 20:29 -6.13781 -43.33717 24369 ft 415 kts 27°
2026-05-05 20:30 -6.11203 -43.32443 23920 ft 411 kts 27°
2026-05-05 20:30 -6.08656 -43.31186 23478 ft 407 kts 27°
2026-05-05 20:30 -6.06129 -43.29937 23035 ft 402 kts 27°
2026-05-05 20:30 -6.03629 -43.28704 22595 ft 398 kts 27°
2026-05-05 20:31 -6.01184 -43.27497 22164 ft 395 kts 27°
2026-05-05 20:31 -5.98729 -43.26287 21734 ft 391 kts 27°
2026-05-05 20:31 -5.96294 -43.25087 21303 ft 388 kts 27°
2026-05-05 20:31 -5.93881 -43.23898 20876 ft 384 kts 27°
2026-05-05 20:32 -5.91494 -43.22722 20452 ft 381 kts 27°
2026-05-05 20:32 -5.89115 -43.21550 20021 ft 378 kts 27°
2026-05-05 20:32 -5.86762 -43.20390 19603 ft 375 kts 27°
2026-05-05 20:32 -5.84431 -43.19241 19182 ft 372 kts 27°
2026-05-05 20:33 -5.82116 -43.18101 18766 ft 369 kts 27°
2026-05-05 20:33 -5.79825 -43.16972 18353 ft 366 kts 27°
2026-05-05 20:33 -5.77546 -43.15849 17943 ft 363 kts 27°
2026-05-05 20:33 -5.75287 -43.14735 17530 ft 360 kts 27°
2026-05-05 20:34 -5.73046 -43.13630 17121 ft 357 kts 27°
2026-05-05 20:34 -5.70827 -43.12539 16715 ft 355 kts 27°
2026-05-05 20:34 -5.68618 -43.11453 16310 ft 352 kts 27°
2026-05-05 20:34 -5.66354 -43.10530 15894 ft 351 kts 18°
2026-05-05 20:35 -5.63978 -43.09984 15512 ft 349 kts 13°
2026-05-05 20:35 -5.61600 -43.09517 15106 ft 347 kts 13°
2026-05-05 20:35 -5.59241 -43.09061 14708 ft 345 kts 13°
2026-05-05 20:35 -5.56893 -43.08602 14310 ft 342 kts 13°
2026-05-05 20:36 -5.54563 -43.08137 13915 ft 340 kts 13°
2026-05-05 20:36 -5.52242 -43.07667 13522 ft 338 kts 13°
2026-05-05 20:36 -5.49977 -43.07203 13137 ft 336 kts 14°
2026-05-05 20:36 -5.47694 -43.06733 12746 ft 334 kts 14°
2026-05-05 20:37 -5.45423 -43.06264 12364 ft 332 kts 14°
2026-05-05 20:37 -5.43173 -43.05799 11982 ft 329 kts 14°
2026-05-05 20:37 -5.40938 -43.05336 11603 ft 327 kts 14°
2026-05-05 20:37 -5.38716 -43.04875 11221 ft 325 kts 14°
2026-05-05 20:38 -5.36507 -43.04417 10841 ft 323 kts 14°
2026-05-05 20:38 -5.34310 -43.03962 10467 ft 321 kts 14°
2026-05-05 20:38 -5.32148 -43.03515 10305 ft 312 kts 14°
2026-05-05 20:38 -5.30050 -43.03082 10164 ft 303 kts 14°
2026-05-05 20:39 -5.28011 -43.02660 10023 ft 295 kts 14°
2026-05-05 20:39 -5.26025 -43.02249 9881 ft 287 kts 14°
2026-05-05 20:39 -5.24078 -43.01844 9589 ft 285 kts 14°
2026-05-05 20:39 -5.22150 -43.01444 9384 ft 281 kts 14°
2026-05-05 20:40 -5.20239 -43.01048 9105 ft 280 kts 14°
2026-05-05 20:40 -5.18337 -43.00653 8817 ft 278 kts 14°
2026-05-05 20:40 -5.16445 -43.00259 8542 ft 277 kts 14°
2026-05-05 20:40 -5.14569 -42.99871 8268 ft 275 kts 14°
2026-05-05 20:41 -5.12696 -42.99483 7975 ft 275 kts 14°
2026-05-05 20:41 -5.10826 -42.99096 7703 ft 274 kts 14°
2026-05-05 20:41 -5.08984 -42.98714 7411 ft 273 kts 14°
2026-05-05 20:41 -5.07106 -42.98325 7129 ft 272 kts 14°
2026-05-05 20:42 -5.05281 -42.97948 6827 ft 272 kts 14°
2026-05-05 20:42 -5.03419 -42.97562 6478 ft 273 kts 14°
2026-05-05 20:42 -5.01559 -42.97178 6182 ft 272 kts 14°
2026-05-05 20:42 -4.99711 -42.96798 5973 ft 267 kts 14°
2026-05-05 20:43 -4.97923 -42.96427 5848 ft 256 kts 14°
2026-05-05 20:43 -4.96248 -42.96080 5760 ft 235 kts 15°
2026-05-05 20:43 -4.94700 -42.95762 5665 ft 220 kts 15°
2026-05-05 20:43 -4.93211 -42.95452 5632 ft 216 kts 15°
2026-05-05 20:44 -4.91770 -42.95153 5545 ft 206 kts 15°
2026-05-05 20:44 -4.90386 -42.94866 5359 ft 199 kts 15°
2026-05-05 20:44 -4.89056 -42.94592 5182 ft 194 kts 15°
2026-05-05 20:44 -4.87735 -42.94305 4988 ft 194 kts 20°
2026-05-05 20:45 -4.86322 -42.92464 4610 ft 171 kts 97°
2026-05-05 20:45 -4.86563 -42.91276 4147 ft 176 kts 106°
2026-05-05 20:45 -4.86866 -42.90123 3985 ft 168 kts 106°
2026-05-05 20:46 -4.87145 -42.89034 3845 ft 153 kts 106°
2026-05-05 20:46 -4.87399 -42.88030 3759 ft 147 kts 105°
2026-05-05 20:46 -4.87642 -42.87059 3661 ft 144 kts 106°
2026-05-05 20:46 -4.87885 -42.86094 3568 ft 143 kts 105°
2026-05-05 20:47 -4.88170 -42.85136 3473 ft 144 kts 115°
2026-05-05 20:47 -4.88871 -42.84455 3361 ft 146 kts 155°
2026-05-05 20:47 -4.89874 -42.84255 3199 ft 149 kts 168°
2026-05-05 20:47 -4.90886 -42.84071 3004 ft 146 kts 166°
2026-05-05 20:48 -4.91889 -42.83902 2810 ft 146 kts 168°
2026-05-05 20:48 -4.92892 -42.83768 2617 ft 146 kts 170°
2026-05-05 20:48 -4.93903 -42.83648 2424 ft 146 kts 171°
2026-05-05 20:48 -4.94912 -42.83536 2227 ft 145 kts 171°
2026-05-05 20:49 -4.95905 -42.83430 2041 ft 145 kts 172°
2026-05-05 20:49 -4.96912 -42.83323 1847 ft 145 kts 172°
2026-05-05 20:49 -4.97916 -42.83217 1653 ft 145 kts 172°
2026-05-05 20:49 -4.98918 -42.83114 1462 ft 144 kts 173°
2026-05-05 20:50 -4.99917 -42.83009 1271 ft 145 kts 173°
2026-05-05 20:50 -5.00917 -42.82904 1081 ft 144 kts 173°
2026-05-05 20:50 -5.01910 -42.82800 887 ft 144 kts 173°
2026-05-05 20:50 -5.02911 -42.82697 698 ft 145 kts 173°
2026-05-05 20:51 -5.03926 -42.82593 488 ft 147 kts 173°
2026-05-05 20:51 -5.04931 -42.82484 260 ft 143 kts 172°
2026-05-05 20:51 -5.05841 -42.82388 215 ft 109 kts 175°
2026-05-05 20:51 -5.06327 -42.82336 216 ft 38 kts 166°
2026-05-05 20:52 -5.06370 -42.82249 215 ft 0 kts 88°
2026-05-05 20:52 -5.06370 -42.82248 215 ft 0 kts 87°
2026-05-05 20:52 -5.06364 -42.82235 214 ft 3 kts 62°
2026-05-05 20:52 -5.06350 -42.82221 214 ft 3 kts 28°
2026-05-05 20:53 -5.06331 -42.82213 214 ft 3 kts 41°
2026-05-05 20:53 -5.06328 -42.82198 214 ft 1 kts 79°
2026-05-05 20:53 -5.06326 -42.82189 214 ft 1 kts 82°
2026-05-05 20:53 -5.06326 -42.82182 214 ft 0 kts 82°